Wind_Speed
6 6 7 8 9 9 8 8 7 7 7 6 5 5 5 5 4 3 3 3 2 2 1 1 1 0 1 1 1 1 2 2 3 4 4 5 5 5 5 5 5 4 5 5 5 5 6 6 7
6 6 6 8 9 8 8 8 8 7 7 6 5 5 5 4 4 3 3 3 3 2 2 2 2 1 1 1 1 1 2 2 3 4 5 5 5 5 5 5 5 5 5 5 5 5 6 6 6
7 7 7 8 8 8 8 8 7 7 7 7 6 5 5 4 4 4 4 3 2 2 2 3 2 1 2 2 1 1 2 3 3 4 5 5 5 5 5 5 5 5 5 5 5 5 6 6 6
8 8 8 8 9 9 9 8 7 7 8 7 7 6 5 5 5 5 4 4 3 3 2 2 2 2 2 2 1 1 2 3 3 4 5 5 6 5 5 5 5 5 6 6 5 5 5 6 5
9 9 9 10 11 10 9 8 8 8 8 8 7 6 6 6 6 6 6 5 4 4 4 3 4 3 2 2 1 1 2 2 3 4 5 6 6 6 5 5 5 5 5 5 5 5 5 5 5
10 10 10 10 10 10 10 9 8 8 8 8 8 7 6 6 7 6 6 7 5 4 4 5 4 4 3 2 2 1 2 3 3 5 6 6 6 6 6 5 5 5 5 5 5 4 5 5 5
10 11 11 10 10 10 9 9 9 9 9 9 9 9 7 7 7 7 6 7 6 6 5 5 4 4 4 3 2 2 2 3 4 5 6 6 6 6 6 6 6 6 5 5 5 5 4 5 5
11 10 10 11 10 10 10 8 9 10 10 10 10 9 9 8 8 7 7 7 6 6 5 5 5 5 4 3 3 3 3 3 3 5 5 6 6 6 6 6 6 6 5 5 5 4 4 4 4
11 11 11 11 10 9 9 8 8 9 9 9 9 9 9 9 9 7 7 7 6 6 6 5 5 4 5 4 3 2 2 2 3 5 6 6 6 6 6 6 6 6 5 5 4 4 3 3 4
11 11 10 11 11 10 9 10 8 9 9 9 9 9 9 9 9 8 7 7 7 6 6 5 5 5 4 4 3 2 2 2 3 4 6 6 6 7 7 7 6 5 5 4 4 3 3 2 3
11 10 10 10 10 10 10 10 9 9 9 9 9 9 9 10 9 8 7 7 7 6 5 5 5 4 4 3 2 1 1 2 3 4 5 6 6 6 7 7 6 6 5 4 3 3 2 1 2
12 11 11 11 10 10 9 10 10 10 9 9 9 8 9 10 9 8 8 7 7 6 5 5 5 4 3 3 2 1 1 2 3 4 5 5 6 6 6 6 6 6 5 4 3 2 1 1 1
11 9 10 10 9 9 9 10 10 9 9 9 9 9 9 9 8 9 9 8 7 7 6 6 6 5 4 3 2 1 1 2 3 4 4 4 6 6 6 6 6 6 5 4 3 2 1 1 1
9 10 10 9 8 8 8 9 10 9 9 10 8 9 10 10 9 9 9 9 9 8 7 6 6 5 4 3 2 2 1 2 3 3 4 4 5 5 6 6 6 5 5 4 4 3 1 1 1
8 7 8 9 9 8 8 8 9 9 9 10 9 9 10 10 9 9 9 8 7 8 7 6 6 6 5 4 3 1 1 2 3 3 4 4 5 5 5 6 6 5 5 4 4 3 2 1 1
7 8 7 8 9 8 9 9 9 9 9 9 10 10 10 10 9 8 9 8 8 8 7 7 7 6 5 4 2 1 1 2 2 3 3 4 4 5 5 5 5 5 5 4 4 3 3 2 2
6 7 7 7 8 8 9 9 9 10 10 9 9 10 10 9 9 8 8 8 9 8 7 7 7 6 5 4 2 2 1 1 2 2 3 4 4 4 5 5 5 5 5 4 4 3 3 2 2
5 5 6 6 7 8 8 9 9 10 10 9 9 8 9 9 9 9 8 8 9 8 8 7 7 6 5 4 3 2 1 1 1 2 3 3 3 4 4 4 5 5 4 4 4 3 3 3 2
6 5 4 5 6 6 7 8 8 8 8 9 9 9 9 9 9 9 9 8 8 8 8 7 7 6 5 4 3 2 2 1 1 1 2 3 3 3 3 4 4 4 4 4 4 4 4 3 2
5 5 4 5 5 6 7 8 8 8 8 8 9 9 10 10 10 10 10 9 9 8 8 7 7 6 6 5 4 3 3 2 1 1 2 2 2 3 3 4 4 4 4 3 3 3 3 3 2
4 5 4 3 5 6 6 7 7 7 7 8 8 9 10 9 10 11 10 10 9 8 8 6 7 7 6 6 5 4 4 3 2 1 1 1 2 3 3 3 3 4 3 3 2 2 2 2 1
4 4 4 3 4 5 5 5 5 6 6 6 8 9 9 10 10 10 10 10 10 9 8 7 7 7 7 6 5 5 4 3 2 1 1 2 2 3 3 3 3 3 3 2 2 1 1 1 1
3 3 4 3 3 3 4 4 4 4 5 5 7 8 9 9 10 9 10 9 9 10 9 8 8 8 8 7 6 5 5 4 3 2 2 2 2 2 3 3 3 3 3 2 2 1 1 1 1
3 3 3 4 4 3 3 3 4 4 5 6 7 8 8 9 10 10 10 9 10 11 10 9 8 8 8 7 6 5 5 5 4 4 3 4 3 3 3 3 3 3 3 2 2 1 1 2 2
4 4 4 4 4 3 3 3 2 4 5 6 7 8 8 9 10 10 10 9 10 11 11 10 9 8 8 8 6 5 5 5 4 4 4 4 3 3 4 4 3 3 3 3 2 2 2 3 3
5 4 4 4 4 4 4 3 3 3 4 5 6 7 8 9 10 10 10 9 10 12 12 11 10 9 9 8 7 6 6 5 5 5 4 4 3 3 3 3 3 4 4 4 4 3 3 3 4
6 6 6 5 4 4 4 4 4 4 4 4 5 7 8 9 9 9 10 10 11 12 12 11 10 9 10 9 7 7 7 7 6 5 5 5 5 4 4 4 4 4 5 5 5 5 4 4 4
7 7 6 6 5 5 5 4 4 4 4 4 4 6 7 8 9 9 10 10 11 11 11 11 10 10 9 10 9 8 7 7 7 7 6 6 6 6 6 6 6 6 6 6 6 6 6 6 6
7 8 7 6 6 6 5 4 4 4 4 5 5 5 7 8 9 10 10 9 10 11 11 11 11 10 10 10 10 9 9 9 9 8 7 7 7 7 7 8 8 8 8 7 7 7 8 9 9
7 8 8 7 6 6 6 5 5 5 4 4 4 5 7 8 9 9 9 9 9 10 10 11 11 11 11 11 11 11 10 10 9 9 9 8 8 8 9 9 9 9 9 9 10 10 10 11 11
Wind_Direction
185 183 182 184 182 184 193 200 200 201 205 205 204 201 193 193 189 195 209 197 204 215 230 257 268 288 320 344 331 349 353 338 337 337 330 329 329 324 316 310 307 299 290 283 275 268 261 259 252
193 189 193 194 193 192 201 205 205 209 215 213 208 200 186 194 195 201 206 209 218 230 241 245 251 239 285 328 323 317 321 329 335 334 330 328 329 326 323 319 314 306 294 286 279 271 266 263 257
200 199 196 198 204 208 212 204 204 215 216 218 212 204 205 206 208 212 216 225 234 238 242 245 237 250 287 296 311 328 336 335 332 333 333 332 331 329 322 316 315 309 304 294 284 278 269 263 258
209 208 207 211 214 218 220 216 211 211 216 219 217 218 217 220 217 220 224 227 229 232 237 231 239 259 267 261 285 338 344 344 344 343 342 340 334 329 325 321 315 311 306 301 288 281 273 262 258
216 217 214 217 220 223 226 223 213 215 216 218 220 225 223 225 227 225 229 226 230 236 236 243 250 258 260 248 250 326 342 342 347 347 346 344 342 337 331 328 323 318 311 303 292 281 275 268 259
219 220 220 223 224 228 230 225 225 222 223 222 224 223 225 231 230 226 226 225 231 236 241 243 251 252 244 244 256 303 331 338 342 346 346 345 345 341 336 334 330 323 319 313 300 284 276 272 263
222 222 228 230 232 232 231 228 231 230 229 224 225 228 226 234 233 234 236 235 239 240 236 236 249 250 246 235 245 283 310 329 337 347 347 348 347 345 343 342 336 327 323 320 310 293 282 272 263
228 228 231 233 236 235 233 232 235 234 234 227 227 228 231 235 236 234 236 239 249 247 240 241 244 243 238 230 251 276 299 326 335 344 348 349 348 346 345 345 343 336 328 322 316 301 289 273 260
232 234 234 236 234 237 234 235 234 234 235 230 227 228 234 233 235 235 240 243 247 248 249 241 226 229 234 236 264 274 295 318 329 340 348 351 349 348 348 346 344 342 332 323 315 306 291 270 256
233 233 234 234 233 235 236 237 231 229 232 232 226 226 230 229 232 233 234 238 237 240 242 228 219 220 223 230 249 263 297 317 327 339 352 356 352 351 349 347 347 342 334 327 325 319 302 272 253
230 231 235 238 236 236 239 239 232 230 228 230 227 226 229 231 231 232 233 232 233 225 223 223 215 213 218 219 225 267 295 324 336 346 353 355 353 352 350 349 349 348 341 336 339 335 322 283 250
234 234 235 238 239 238 237 238 231 230 230 230 224 220 223 226 225 227 227 222 225 220 216 216 204 205 199 203 213 277 297 322 337 345 349 354 355 354 353 356 356 353 352 353 350 348 351 351 282
233 231 232 233 234 237 236 234 233 230 230 233 226 219 222 224 227 230 229 222 218 213 213 217 206 199 200 208 216 265 298 325 341 347 352 356 358 358 359 2 1 357 356 2 6 359 3 18 13
235 234 236 231 232 233 233 232 231 229 232 234 232 229 230 227 223 229 229 226 217 210 207 207 203 201 201 209 223 256 318 357 350 351 355 356 358 1 5 6 3 2 3 10 18 21 22 38 43
224 230 232 237 236 236 232 232 233 234 235 235 235 232 229 227 222 227 228 224 215 203 197 197 201 207 206 216 230 247 333 3 353 354 359 356 357 359 5 7 7 9 10 14 23 31 38 48 60
225 235 232 236 238 239 234 235 238 236 235 232 234 234 228 225 223 223 221 217 212 200 198 198 200 208 210 218 221 244 314 338 341 352 357 358 3 4 8 11 9 14 15 19 26 36 45 52 66
229 239 235 236 242 238 236 235 232 234 230 232 230 233 231 227 223 220 215 210 207 206 204 205 203 212 215 213 222 252 291 324 339 349 359 2 8 11 13 13 12 18 24 27 29 39 51 53 63
239 244 240 237 235 235 236 235 231 232 228 227 223 225 226 225 223 216 211 206 207 207 210 213 213 217 213 219 229 240 260 294 344 358 4 5 11 16 21 20 18 23 29 32 34 43 52 52 69
242 252 260 250 240 229 231 232 228 227 226 224 224 222 217 221 218 208 205 208 207 210 216 216 215 216 217 225 229 232 245 267 295 351 1 9 15 16 20 19 22 23 22 30 40 49 55 56 68
239 245 256 252 232 224 225 228 224 221 220 221 219 215 210 215 214 207 204 205 209 211 209 211 210 214 222 225 225 225 236 252 285 343 355 2 4 5 11 20 25 27 26 34 42 52 58 53 62
233 236 243 239 229 223 229 224 220 214 212 215 213 211 210 211 209 207 203 203 203 202 204 211 212 218 222 222 223 225 230 235 266 290 326 339 350 355 2 16 20 18 18 29 45 58 56 43 50
222 225 224 220 232 234 232 220 216 210 208 208 206 210 210 211 207 204 201 202 202 201 203 215 215 219 221 220 224 228 228 235 246 260 286 320 341 351 358 3 7 10 17 28 35 40 32 20 18
221 219 209 203 211 235 238 226 206 214 208 201 200 205 205 206 202 200 204 208 209 204 204 212 214 218 216 216 222 227 231 237 235 251 272 297 325 339 350 351 355 2 9 12 10 4 355 348 340
223 212 207 203 216 244 228 219 206 208 199 198 201 201 202 205 204 204 206 213 213 207 205 207 210 215 214 211 217 225 231 234 239 255 267 282 300 313 330 334 331 333 341 347 345 341 333 322 313
218 211 201 206 215 218 202 197 197 203 197 198 197 200 203 206 204 207 211 213 209 204 202 202 208 215 215 214 219 223 229 232 243 257 267 275 292 302 315 321 324 322 321 318 306 300 306 308 303
213 214 213 220 225 218 202 192 187 194 191 197 199 204 206 202 200 205 210 211 209 207 205 206 211 215 217 221 229 233 233 236 241 250 262 265 266 284 298 305 308 310 310 309 306 298 301 302 302
221 220 224 226 228 223 209 199 195 194 188 192 202 205 206 209 210 210 213 217 211 208 208 210 216 220 221 225 233 240 241 240 239 245 256 260 263 273 283 292 301 304 301 297 297 296 296 294 298
220 219 221 223 233 237 230 220 204 198 198 198 203 203 207 213 214 213 212 213 210 210 209 214 221 227 227 228 234 241 244 242 242 247 257 263 266 273 279 285 291 294 293 291 290 286 289 294 294
221 226 228 233 241 251 258 224 207 210 214 214 213 210 203 208 212 211 212 213 211 211 212 218 222 229 229 231 236 240 243 245 246 251 257 263 269 274 277 280 282 284 287 286 287 288 288 289 289
224 226 230 235 238 249 258 244 234 232 227 218 218 212 206 207 212 214 214 211 211 213 215 221 225 232 233 233 236 239 245 248 247 254 255 261 268 273 275 278 280 282 285 286 287 287 288 287 285
Height
5884 5885 5885 5887 5888 5888 5887 5888 5888 5889 5890 5890 5891 5891 5892 5893 5895 5897 5895 5894 5894 5894 5894 5894 5893 5893 5893 5892 5892 5892 5891 5890 5890 5889 5888 5887 5886 5885 5884 5883 5882 5881 5880 5880 5879 5879 5879 5879 5879
5883 5884 5885 5886 5886 5886 5887 5887 5888 5888 5889 5890 5890 5891 5891 5892 5893 5894 5893 5893 5894 5894 5894 5893 5893 5893 5893 5892 5892 5892 5891 5890 5890 5889 5888 5887 5886 5884 5883 5882 5881 5880 5879 5879 5878 5878 5877 5877 5877
5883 5883 5885 5885 5884 5885 5886 5886 5886 5887 5888 5889 5890 5891 5891 5892 5892 5892 5893 5893 5893 5893 5893 5893 5893 5893 5892 5892 5892 5891 5891 5890 5889 5888 5887 5886 5885 5884 5883 5881 5880 5879 5878 5877 5877 5876 5876 5876 5876
5881 5883 5884 5884 5883 5884 5884 5885 5885 5886 5887 5888 5889 5890 5890 5891 5891 5892 5892 5892 5892 5893 5893 5893 5892 5892 5892 5892 5891 5891 5890 5890 5889 5888 5887 5885 5884 5883 5882 5881 5879 5878 5877 5876 5875 5875 5874 5874 5874
5880 5881 5882 5881 5882 5882 5883 5883 5884 5885 5886 5887 5888 5889 5889 5890 5890 5891 5891 5891 5892 5892 5892 5892 5892 5892 5892 5891 5891 5891 5890 5889 5889 5888 5886 5885 5884 5882 5881 5880 5878 5877 5876 5875 5874 5874 5873 5873 5873
5878 5879 5880 5880 5880 5881 5881 5882 5883 5884 5884 5886 5887 5888 5888 5889 5889 5889 5890 5890 5891 5891 5891 5891 5891 5891 5891 5891 5891 5890 5890 5889 5888 5887 5886 5884 5883 5882 5880 5879 5878 5876 5875 5874 5873 5873 5872 5872 5871
5876 5877 5877 5878 5879 5879 5880 5881 5882 5882 5883 5884 5885 5886 5887 5887 5888 5888 5889 5889 5890 5890 5890 5890 5890 5891 5891 5890 5890 5890 5889 5888 5888 5887 5885 5884 5882 5881 5879 5878 5877 5875 5874 5873 5872 5871 5871 5871 5870
5874 5875 5875 5876 5877 5878 5878 5879 5880 5881 5882 5882 5883 5884 5885 5886 5887 5887 5888 5888 5888 5889 5889 5889 5889 5890 5890 5890 5889 5889 5888 5888 5887 5886 5885 5883 5882 5880 5879 5877 5876 5874 5873 5872 5871 5870 5870 5869 5869
5872 5874 5873 5874 5875 5876 5876 5877 5878 5879 5879 5880 5881 5883 5884 5885 5885 5885 5886 5886 5887 5888 5888 5888 5889 5889 5889 5889 5889 5888 5888 5887 5886 5885 5884 5883 5881 5880 5878 5877 5875 5874 5872 5871 5870 5869 5869 5868 5868
5870 5871 5872 5873 5873 5874 5875 5875 5876 5877 5878 5879 5880 5881 5882 5883 5883 5884 5885 5885 5886 5886 5887 5887 5888 5888 5888 5888 5888 5887 5887 5886 5886 5885 5884 5882 5881 5879 5877 5876 5874 5873 5872 5870 5869 5868 5868 5867 5867
5868 5869 5869 5870 5871 5872 5872 5873 5874 5875 5876 5877 5878 5879 5881 5881 5882 5883 5883 5884 5885 5885 5886 5886 5886 5887 5887 5887 5887 5887 5886 5886 5885 5884 5883 5882 5880 5878 5877 5875 5874 5872 5871 5870 5869 5868 5867 5866 5866
5865 5866 5867 5868 5869 5870 5870 5871 5872 5873 5875 5875 5876 5877 5879 5880 5881 5881 5882 5883 5884 5884 5885 5885 5886 5886 5886 5887 5887 5886 5886 5886 5885 5884 5883 5881 5880 5878 5876 5875 5873 5872 5870 5869 5868 5867 5866 5866 5865
5863 5864 5865 5866 5867 5868 5869 5869 5870 5872 5873 5874 5874 5875 5877 5878 5879 5880 5881 5882 5882 5883 5884 5885 5885 5886 5886 5886 5886 5886 5885 5885 5884 5883 5882 5881 5879 5877 5876 5874 5873 5871 5870 5868 5868 5867 5866 5865 5865
5862 5863 5863 5864 5865 5866 5867 5868 5869 5870 5871 5872 5873 5874 5875 5876 5878 5879 5879 5880 5881 5882 5883 5884 5884 5885 5885 5885 5885 5885 5885 5884 5883 5882 5881 5880 5878 5877 5875 5874 5872 5871 5869 5868 5867 5866 5866 5865 5865
5861 5862 5862 5862 5863 5864 5865 5866 5867 5868 5869 5870 5871 5872 5873 5874 5875 5877 5877 5878 5879 5880 5882 5883 5884 5884 5884 5884 5885 5884 5884 5883 5883 5882 5880 5879 5878 5876 5875 5873 5872 5870 5869 5868 5867 5866 5865 5865 5865
5859 5860 5861 5861 5861 5862 5865 5865 5865 5866 5867 5868 5869 5870 5871 5872 5874 5875 5875 5876 5878 5879 5881 5882 5882 5883 5883 5884 5884 5884 5883 5883 5882 5881 5880 5879 5877 5876 5875 5873 5872 5870 5869 5868 5867 5866 5865 5865 5865
5857 5858 5859 5860 5860 5860 5862 5862 5863 5864 5865 5866 5867 5868 5869 5870 5872 5873 5874 5875 5876 5878 5879 5881 5881 5882 5882 5883 5883 5883 5882 5882 5881 5880 5879 5878 5877 5875 5874 5873 5872 5870 5869 5868 5867 5866 5865 5865 5865
5856 5856 5857 5858 5858 5858 5859 5860 5861 5861 5863 5864 5865 5866 5867 5868 5870 5871 5872 5873 5875 5876 5878 5879 5880 5881 5881 5882 5882 5882 5882 5881 5881 5880 5879 5878 5876 5875 5874 5873 5871 5870 5869 5867 5867 5866 5866 5865 5865
5855 5855 5855 5856 5856 5857 5857 5858 5859 5860 5861 5862 5863 5864 5865 5866 5868 5869 5871 5872 5874 5875 5876 5877 5878 5879 5880 5881 5881 5881 5881 5881 5880 5879 5878 5877 5876 5875 5874 5872 5871 5870 5869 5867 5867 5866 5866 5866 5865
5853 5854 5854 5854 5855 5855 5856 5857 5857 5858 5859 5860 5861 5862 5863 5865 5866 5868 5869 5871 5872 5874 5875 5876 5877 5878 5879 5879 5880 5880 5880 5880 5879 5879 5878 5877 5876 5875 5873 5872 5871 5870 5869 5867 5867 5866 5866 5866 5866
5852 5853 5853 5854 5854 5854 5855 5856 5856 5857 5857 5858 5859 5860 5862 5863 5865 5866 5868 5869 5871 5872 5873 5874 5876 5877 5877 5878 5879 5879 5879 5879 5878 5878 5877 5877 5876 5874 5873 5872 5871 5870 5869 5867 5867 5866 5866 5866 5866
5851 5851 5852 5852 5853 5853 5854 5854 5855 5855 5856 5856 5857 5859 5860 5862 5863 5864 5866 5868 5869 5870 5872 5873 5874 5875 5876 5877 5878 5878 5878 5878 5878 5877 5877 5876 5875 5874 5873 5872 5871 5870 5869 5868 5867 5867 5866 5866 5866
5850 5850 5851 5851 5852 5852 5853 5853 5854 5853 5854 5855 5856 5857 5858 5860 5861 5863 5864 5866 5867 5869 5870 5872 5873 5874 5875 5876 5876 5877 5877 5877 5877 5876 5876 5875 5874 5873 5872 5871 5871 5870 5869 5868 5867 5867 5866 5866 5866
5849 5850 5850 5851 5851 5852 5852 5852 5853 5852 5853 5853 5854 5855 5856 5858 5860 5861 5863 5864 5866 5867 5868 5870 5871 5872 5873 5874 5875 5875 5875 5876 5876 5875 5875 5874 5873 5873 5872 5871 5870 5869 5868 5868 5867 5867 5866 5866 5866
5849 5850 5850 5850 5850 5851 5851 5850 5852 5851 5851 5852 5852 5854 5855 5856 5858 5859 5861 5862 5864 5865 5867 5868 5870 5871 5872 5873 5873 5874 5874 5874 5874 5874 5874 5873 5873 5872 5871 5870 5869 5869 5868 5867 5866 5866 5866 5865 5865
5848 5849 5850 5850 5849 5850 5849 5849 5851 5850 5850 5850 5851 5852 5853 5855 5856 5858 5859 5860 5862 5864 5865 5866 5868 5869 5870 5871 5872 5872 5872 5872 5873 5873 5872 5872 5871 5871 5870 5869 5869 5868 5867 5866 5866 5865 5865 5864 5864
5847 5848 5848 5848 5848 5848 5848 5849 5849 5849 5849 5849 5849 5851 5852 5853 5854 5856 5857 5859 5860 5862 5863 5865 5866 5867 5868 5869 5870 5870 5871 5871 5871 5871 5871 5871 5870 5870 5869 5869 5868 5867 5866 5865 5865 5864 5864 5863 5862
5846 5846 5847 5847 5847 5847 5847 5848 5849 5848 5848 5848 5849 5849 5850 5851 5853 5854 5855 5857 5858 5860 5861 5862 5864 5865 5866 5867 5868 5868 5869 5869 5869 5869 5869 5869 5869 5868 5868 5867 5866 5866 5865 5864 5863 5863 5862 5861 5861
5844 5845 5845 5845 5846 5846 5846 5849 5847 5847 5847 5848 5848 5848 5849 5850 5851 5852 5854 5855 5856 5858 5859 5861 5862 5863 5864 5865 5865 5866 5866 5867 5867 5867 5867 5867 5867 5866 5866 5865 5865 5864 5863 5862 5861 5861 5860 5859 5859
5842 5843 5843 5844 5844 5844 5845 5849 5846 5846 5846 5846 5846 5847 5848 5849 5850 5851 5852 5853 5854 5856 5857 5858 5860 5861 5861 5862 5863 5863 5864 5864 5865 5865 5865 5865 5865 5864 5864 5863 5862 5862 5861 5860 5859 5858 5857 5857 5856